Weather History for Superior, WI

Change the Weather History Date:

Tuesday, March 18, 2014

  Actual Average Record
Temperature  
Mean Temperature 26 °F -  
Max Temperature 28 °F 36 °F 60 °F (1968)
Min Temperature 25 °F 21 °F -11 °F (1950)
Degree Days  
Heating Degree Days 38    
Moisture  
Dew Point 24 °F    
Average Humidity 89    
Maximum Humidity 95    
Minimum Humidity 74    
Precipitation  
Precipitation 0.04 in - - ()
Sea Level Pressure  
Sea Level Pressure 29.84 in    
Wind  
Wind Speed 9 mph (ENE)    
Max Wind Speed 18 mph    
Max Gust Speed 28 mph    
Visibility 4 miles    
Events Snow    
Averages and records for this station are not official NWS values.
T = Trace of Precipitation, MM = Missing Value Source: NWS Daily Summary

Daily Weather History Graph

Daily Weather History Graph

Search for Another Location

Airport:

Trip Planner

Search our weather history database for the weather conditions in past years. The results will help you decide how hot, cold, wet, or windy it might be!

Date:

Astronomy

Mar. 18, 2014 Rise Set
Actual Time 7:15 AM CDT 7:18 PM CDT
Civil Twilight 6:45 AM CDT 7:48 PM CDT
Nautical Twilight 6:09 AM CDT 8:23 PM CDT
Astronomical Twilight 5:33 AM CDT 9:00 PM CDT
Moon 9:46 PM CDT (3/18) 7:56 AM CDT (3/18)
Length of Visible Light 13h 03m
Length of Day
12h 03m
Waning Gibbous, 96% of the Moon is Illuminated
Mar 18
Waning Gibbous
Mar 23
Last Quarter
Mar 30
New
Apr 7
First Quarter
Apr 15
Full

Hourly Weather History & Observations

Time (CDT) Temp. Windchill Dew Point Humidity Pressure Visibility Wind Dir Wind Speed Gust Speed Precip Events Conditions
12:15 AM 26.6 °F 21.2 °F 19.8 °F 75% 29.76 in 10.0 mi East 4.6 mph - N/A   Overcast
12:35 AM 26.6 °F 20.0 °F 19.6 °F 75% 29.76 in 10.0 mi East 5.8 mph - N/A   Overcast
12:55 AM 26.6 °F 19.1 °F 19.6 °F 75% 29.76 in 10.0 mi East 6.9 mph - N/A   Overcast
1:15 AM 26.6 °F 20.0 °F 19.9 °F 76% 29.77 in 10.0 mi East 5.8 mph - N/A   Overcast
1:35 AM 26.6 °F 20.0 °F 19.9 °F 76% 29.77 in 10.0 mi East 5.8 mph - N/A   Overcast
1:55 AM 26.8 °F 21.4 °F 19.6 °F 74% 29.78 in 10.0 mi East 4.6 mph - N/A   Overcast
2:15 AM 27.0 °F 21.6 °F 19.9 °F 75% 29.78 in 10.0 mi East 4.6 mph - N/A Snow Light Snow
2:35 AM 26.4 °F 22.4 °F 21.2 °F 81% 29.78 in 5.0 mi East 3.5 mph - N/A Snow Light Snow
2:55 AM 26.4 °F 19.8 °F 21.2 °F 81% 29.78 in 10.0 mi East 5.8 mph - N/A   Overcast
3:15 AM 26.4 °F 22.4 °F 21.2 °F 81% 29.78 in 10.0 mi East 3.5 mph - N/A   Overcast
3:35 AM 26.6 °F 19.1 °F 21.2 °F 80% 29.78 in 10.0 mi East 6.9 mph - N/A   Overcast
3:55 AM 26.6 °F 19.1 °F 21.2 °F 80% 29.76 in 10.0 mi East 6.9 mph - N/A   Overcast
4:15 AM 26.4 °F 19.8 °F 21.6 °F 82% 29.76 in 7.0 mi East 5.8 mph - N/A Snow Light Snow
4:35 AM 26.4 °F 18.9 °F 21.7 °F 82% 29.76 in 10.0 mi East 6.9 mph - N/A   Overcast
4:55 AM 26.2 °F 17.8 °F 22.1 °F 84% 29.76 in 5.0 mi East 8.1 mph - N/A Snow Light Snow
5:15 AM 26.1 °F 16.8 °F 22.6 °F 87% 29.76 in 2.5 mi East 9.2 mph - N/A Snow Light Snow
5:35 AM 25.7 °F 17.1 °F 23.0 °F 89% 29.77 in 2.0 mi East 8.1 mph - N/A Snow Light Snow
5:55 AM 25.7 °F 17.1 °F 23.7 °F 92% 29.78 in 1.5 mi East 8.1 mph - N/A Snow Light Snow
6:15 AM 25.7 °F 16.4 °F 23.9 °F 93% 29.79 in 1.2 mi East 9.2 mph - 0.01 in Snow Light Snow
6:35 AM 25.7 °F 17.1 °F 24.1 °F 94% 29.80 in 1.2 mi East 8.1 mph - 0.01 in Snow Light Snow
6:55 AM 25.7 °F 17.1 °F 24.3 °F 94% 29.81 in 1.2 mi East 8.1 mph - 0.02 in Snow Light Snow
7:15 AM 25.7 °F 16.4 °F 24.3 °F 94% 29.81 in 1.2 mi East 9.2 mph - N/A Snow Light Snow
7:35 AM 25.7 °F 17.1 °F 23.9 °F 93% 29.82 in 1.2 mi East 8.1 mph - N/A Snow Light Snow
7:55 AM 26.1 °F 18.4 °F 24.1 °F 92% 29.83 in 1.0 mi East 6.9 mph - N/A Snow Light Snow
8:15 AM 26.1 °F 18.4 °F 24.4 °F 94% 29.83 in 1.5 mi ENE 6.9 mph - N/A Snow Light Snow
8:35 AM 26.2 °F 16.4 °F 24.4 °F 93% 29.83 in 1.8 mi East 10.4 mph - N/A Snow Light Snow
8:55 AM 26.4 °F 18.0 °F 24.4 °F 92% 29.83 in 2.5 mi East 8.1 mph - N/A Snow Light Snow
9:15 AM 26.6 °F 17.5 °F 24.8 °F 93% 29.84 in 2.0 mi East 9.2 mph - N/A Snow Light Snow
9:35 AM 27.3 °F 20.9 °F 25.5 °F 93% 29.84 in 2.0 mi East 5.8 mph - N/A Snow Light Snow
9:55 AM 27.1 °F 19.7 °F 25.3 °F 93% 29.85 in 1.5 mi East 6.9 mph - N/A   Overcast
10:15 AM 26.6 °F 16.8 °F 24.8 °F 93% 29.85 in 2.0 mi East 10.4 mph - N/A   Overcast
10:35 AM 27.1 °F 16.4 °F 25.3 °F 93% 29.86 in 3.0 mi East 12.7 mph - N/A Snow Light Snow
10:55 AM 27.9 °F 17.8 °F 25.7 °F 92% 29.86 in 2.5 mi East 11.5 mph - N/A Snow Light Snow
11:15 AM 28.0 °F 17.0 °F 25.5 °F 90% 29.86 in 2.5 mi East 13.8 mph 18.4 mph N/A Snow Light Snow
11:35 AM 28.2 °F 17.2 °F 25.7 °F 90% 29.86 in 2.0 mi East 13.8 mph - N/A Snow Light Snow
11:55 AM 28.4 °F 17.5 °F 25.7 °F 90% 29.87 in 1.8 mi ENE 13.8 mph 21.9 mph N/A Snow Light Snow
12:15 PM 28.2 °F 17.7 °F 25.5 °F 90% 29.87 in 1.5 mi ENE 12.7 mph 19.6 mph N/A Snow Light Snow
12:35 PM 28.2 °F 17.7 °F 25.3 °F 89% 29.87 in 1.8 mi ENE 12.7 mph 19.6 mph N/A Snow Light Snow
12:55 PM 27.5 °F 15.9 °F 25.3 °F 92% 29.88 in 1.5 mi NE 15.0 mph 21.9 mph N/A Snow Light Snow
1:15 PM 27.5 °F 16.3 °F 25.2 °F 91% 29.88 in 1.2 mi ENE 13.8 mph 17.3 mph 0.01 in Snow Light Snow
1:35 PM 27.3 °F 16.6 °F 25.0 °F 91% 29.87 in 1.2 mi ENE 12.7 mph 24.2 mph 0.01 in Snow Light Snow
1:55 PM 27.3 °F 16.1 °F 24.8 °F 90% 29.87 in 1.2 mi NE 13.8 mph 21.9 mph 0.01 in Snow Light Snow
2:15 PM 27.3 °F 16.1 °F 24.8 °F 90% 29.87 in 1.2 mi ENE 13.8 mph 21.9 mph N/A Snow Light Snow
2:35 PM 27.3 °F 15.2 °F 24.8 °F 90% 29.87 in 1.8 mi ENE 16.1 mph 23.0 mph N/A Snow Light Snow
2:55 PM 27.5 °F 16.3 °F 25.0 °F 90% 29.87 in 1.8 mi ENE 13.8 mph 23.0 mph N/A Snow Light Snow
3:15 PM 27.9 °F 16.8 °F 25.5 °F 91% 29.86 in 1.5 mi ENE 13.8 mph 21.9 mph N/A Snow Light Snow
3:35 PM 27.5 °F 16.3 °F 25.7 °F 93% 29.87 in 1.5 mi ENE 13.8 mph 24.2 mph N/A Snow Light Snow
3:55 PM 27.1 °F 15.4 °F 25.2 °F 92% 29.87 in 1.0 mi NE 15.0 mph 24.2 mph N/A Snow Light Snow
4:15 PM 27.1 °F 15.9 °F 25.3 °F 93% 29.87 in 1.0 mi ENE 13.8 mph 21.9 mph N/A Snow Light Snow
4:35 PM 27.1 °F 14.9 °F 25.3 °F 93% 29.87 in 1.0 mi ENE 16.1 mph 23.0 mph N/A Snow Light Snow
4:55 PM 27.3 °F 15.2 °F 25.5 °F 93% 29.88 in 0.8 mi ENE 16.1 mph 23.0 mph N/A Snow Light Snow
5:15 PM 27.3 °F 16.1 °F 25.7 °F 94% 29.88 in 0.8 mi NE 13.8 mph 24.2 mph N/A Snow Light Snow
5:35 PM 27.0 °F 14.7 °F 25.3 °F 94% 29.88 in 1.0 mi ENE 16.1 mph 23.0 mph 0.01 in Snow Light Snow
5:55 PM 27.0 °F 14.3 °F 25.3 °F 94% 29.88 in 1.0 mi NE 17.3 mph 25.3 mph 0.01 in Snow Light Snow
6:15 PM 27.1 °F 16.4 °F 25.3 °F 93% 29.88 in 1.5 mi NE 12.7 mph 21.9 mph N/A Snow Light Snow
6:35 PM 27.3 °F 16.6 °F 25.7 °F 94% 29.88 in 2.0 mi NE 12.7 mph 21.9 mph N/A Snow Light Snow
6:55 PM 27.3 °F 15.6 °F 25.3 °F 92% 29.88 in 4.0 mi NE 15.0 mph 27.6 mph N/A   Overcast
7:15 PM 27.3 °F 15.6 °F 25.2 °F 92% 29.89 in 4.0 mi NE 15.0 mph 23.0 mph N/A Snow Light Snow
7:35 PM 27.3 °F 16.1 °F 25.3 °F 92% 29.89 in 5.0 mi NE 13.8 mph 19.6 mph N/A Snow Light Snow
7:55 PM 27.3 °F 15.6 °F 25.2 °F 92% 29.89 in 10.0 mi NE 15.0 mph 23.0 mph N/A   Overcast
8:15 PM 27.1 °F 15.4 °F 25.0 °F 92% 29.90 in 10.0 mi NE 15.0 mph 23.0 mph N/A   Overcast
8:35 PM 27.1 °F 14.1 °F 25.2 °F 92% 29.89 in 5.0 mi NE 18.4 mph 27.6 mph N/A   Overcast
8:55 PM 26.8 °F 14.1 °F 25.0 °F 93% 29.89 in 4.0 mi NE 17.3 mph 24.2 mph N/A   Overcast
9:15 PM 26.6 °F 14.3 °F 25.2 °F 94% 29.90 in 3.0 mi NE 16.1 mph 21.9 mph N/A Snow Light Snow
9:35 PM 26.6 °F 14.7 °F 25.3 °F 95% 29.90 in 2.0 mi NE 15.0 mph 21.9 mph N/A Snow Light Snow
9:55 PM 26.6 °F 14.3 °F 25.2 °F 94% 29.90 in 3.0 mi NE 16.1 mph 24.2 mph N/A Snow Light Snow
10:15 PM 26.6 °F 15.2 °F 25.3 °F 95% 29.90 in 3.0 mi ENE 13.8 mph 21.9 mph N/A Snow Light Snow
10:35 PM 26.6 °F 16.2 °F 25.2 °F 94% 29.90 in 4.0 mi NE 11.5 mph 21.9 mph N/A Snow Light Snow
10:55 PM 26.6 °F 15.2 °F 25.2 °F 94% 29.89 in 5.0 mi NE 13.8 mph 21.9 mph N/A   Overcast
11:15 PM 26.6 °F 15.7 °F 24.8 °F 93% 29.89 in 4.0 mi NE 12.7 mph 23.0 mph N/A Snow Light Snow
11:35 PM 26.6 °F 15.2 °F 24.8 °F 93% 29.88 in 4.0 mi NE 13.8 mph 20.7 mph N/A Snow Light Snow
11:55 PM 26.6 °F 15.7 °F 24.8 °F 93% 29.88 in 3.0 mi NE 12.7 mph 20.7 mph N/A Snow Light Snow